This demonstration page uses our WeatherBlox Daily Observations layout. Learn more.

Left ArrowRight Arrow

39.08367, -84.50855

Hourly Observations for March 8, 2020

Temp ( °F °C ) Dew Point ( °F °C ) Humidity (%) Winds ( mph kmh ) Pressure ( in mb ) Visibility ( mi km ) Precip ( " mm )
12:53 am 00:53 Clear 29 -1.7 25 -3.9 85 85 N N/A 30.50 1033 10 16 N/A
1:53 am 01:53 Clear 29 -1.7 24 -4.4 82 82 N N/A 30.50 1033 10 16 N/A
3:53 am 03:53 Clear 29 -1.7 25 -3.9 85 85 N N/A 30.49 1032 10 16 N/A
4:53 am 04:53 Clear 27 -2.8 24 -4.4 89 89 N N/A 30.48 1032 10 16 N/A
5:53 am 05:53 Clear 27 -2.8 25 -3.9 92 92 N N/A 30.48 1032 10 16 N/A
6:53 am 06:53 Clear 27 -2.8 25 -3.9 92 92 N N/A 30.50 1033 10 16 N/A
7:53 am 07:53 Clear 26 -3.3 24 -4.4 92 92 N N/A 30.50 1033 10 16 N/A
8:53 am 08:53 Sunny 29 -1.7 28 -2.2 96 96 N N/A 30.52 1034 10 16 N/A
9:53 am 09:53 Sunny 37 2.8 30 -1.1 76 76 VRB 3 6 30.51 1033 10 16 N/A
10:53 am 10:53 Sunny 45 7.2 27 -2.8 49 49 S 7 11 30.50 1033 10 16 N/A
11:53 am 11:53 Sunny 53 11.7 27 -2.8 37 37 S 9 15 30.47 1032 10 16 N/A
12:53 pm 12:53 Sunny 59 15 25 -3.9 27 27 SW 12 19 30.44 1031 10 16 N/A
1:53 pm 13:53 Sunny 62 16.7 26 -3.3 25 25 SSW 10 17 30.41 1030 10 16 N/A
2:53 pm 14:53 Sunny 64 17.8 24 -4.4 22 22 SSW 13 20 30.38 1029 10 16 N/A
3:53 pm 15:53 Sunny 66 18.9 25 -3.9 21 21 S 16 26 30.35 1028 10 16 N/A
4:53 pm 16:53 Sunny 67 19.4 26 -3.3 21 21 SSW 12 19 30.33 1027 10 16 N/A
5:53 pm 17:53 Sunny 65 18.3 23 -5 20 20 SW 15 24 30.32 1027 10 16 N/A
6:53 pm 18:53 Sunny 63 17.2 25 -3.9 24 24 S 13 20 30.31 1027 10 16 N/A
7:53 pm 19:53 Clear 56 13.3 26 -3.3 32 32 S 10 17 30.32 1027 10 16 N/A
8:53 pm 20:53 Clear 55 12.8 24 -4.4 30 30 SSW 6 9 30.33 1027 10 16 N/A
9:53 pm 21:53 Clear 50 10 26 -3.3 39 39 N N/A 30.32 1027 10 16 N/A
10:53 pm 22:53 Clear 44 6.7 31 -0.6 60 60 N N/A 30.33 1027 10 16 N/A
11:53 pm 23:53 Clear 42 5.6 31 -0.6 65 65 N N/A 30.34 1027 10 16 N/A

Powered by AerisWeather